Погода в Тепловке

Россия / Саратовская область     52°04′11″N   46°07′50″E
темп.,
°C
ветер,
м/с
пор.,
м/с
влажн.,
%
обл.,
%
осадки,
мм/ч
давл.,
гПа
погр.,
м
15 апреля, чт
чт1501:00+10всв22695 0.0 102014
04:00+9всв22754 0.0 102011
07:00+9св22732 0.0 101923
10:00+15в465416 0.0 1018356
13:00+20вюв563994 0.0 1017797
16:00+22вюв5631100 0.0 10161626
19:00+18вюв3445100 0.0 101650
22:00+14вюв2253100 0.0 101616
16 апреля, пт
пт1601:00+12св1156100 0.0 101610
04:00+11св226196 0.0 101613
07:00+11св2261100 0.0 101718
10:00+15всв4650100 0.0 1018324
13:00+18в4541100 0.0 1018805
16:00+19в4538100 0.0 10181034
19:00+17всв2248100 0.0 101819
22:00+14св2253100 0.0 101914
17 апреля, сб
сб1701:00+11св3768100 0.0 1019124
04:00+10св357458 0.0 102077
07:00+9св497995 0.0 1020184
10:00+15в685692 0.0 1020544
13:00+18вюв684310 0.0 10201351
16:00+19в663547 0.0 10192529
19:00+17всв61147100 0.0 1018331
22:00+13зюз3572100 0.1 1019140
18 апреля, вс
вс1801:00+8зсз71085100 2.3 1020443
04:00+8ссз5892100 8.4 1020278
07:00+8зсз3690100 1.4 1020321
10:00+10ссз348361 1.5 1020584
13:00+12с437274 0.1 1020931
16:00+11ссв5472100 0.1 1020656
19:00+10ссв4679100 0.0 1021345
22:00+9ссв4681100 0.0 1021223
19 апреля, пн
пн1901:00+9ссв4880100 0.2 1020307
04:00+8всв61277100 0.4 1021508
07:00+7всв71383100 0.2 1021574
10:00+6всв71288100 1.4 1022654
13:00+5всв71190100 4.8 1023747
16:00+7всв61088100 9.5 10221090
19:00+6всв71091100 0.3 1022946
22:00+6всв71193100 2.2 1022950